Welcome to the New NWS' Forecast!
Most changes are behind the scenes, but click here for differences you might notice.
Latest weather observations around

Santa Monica, Santa Monica Municipal Airport (KSMO)

Using English Units (Switch to International System of Units)
Date/ Time (PST) Wind (mph) Vis. (mi) Weather Sky Cond. Temp (°F) Rel. Humidity Wind Chill (°F) Heat Index (°F) Pressure Precip. (in)
Air Dwpt 6 hour Altimeter (inHg) Sea level (inHg) 1 hr 3 hr 6 hr
Max Min
Jan 21 21:51 Calm 10 Clear CLR 50 35     56%     30.29 30.28      
Jan 21 20:51 Calm 10 Clear CLR 50 39     66%     30.28 30.28      
Jan 21 18:51 SSW 3 10 Clear CLR 55 40     57%     30.28 30.28      
Jan 21 17:51 SSW 5 10 Clear CLR 56 35     45%     30.27 30.27      
Jan 21 16:51 WSW 6 10 Clear CLR 57 36     45%     30.27 30.26      
Jan 21 15:51 SW 8 10 Clear CLR 59 32     36%     30.27 30.26      
Jan 21 14:51 WSW 7 10 Clear CLR 61 26     26%     30.26 30.25      
Jan 21 13:51 SSW 8 10 Clear CLR 62 23     22%     30.26 30.25      
Jan 21 12:51 SW 7 10 Clear CLR 61 23     23%     30.27 30.27      
Jan 21 11:51 3 10 Clear CLR 61 24     24%     30.3 30.29      
Jan 21 10:51 ESE 3 10 Clear CLR 58 24     27%     30.32 30.31      
Jan 21 09:51 NE 5 10 Clear CLR 57 26     30%     30.31 30.31      
Jan 21 08:51 Calm 10 Clear CLR 53 29     39%     30.3 30.29      
Jan 21 07:51 Calm 10 Clear CLR 47 30     52%     30.26 30.26      
Jan 21 06:51 NNE 3 10 Clear CLR 44 27     51% 43   30.24 30.24      
Jan 21 05:51 NNE 5 10 Clear CLR 45 27     49% 43   30.21 30.21      
Jan 21 04:51 NE 3 10 Clear CLR 47 24     40% 46   30.2 30.2      
Jan 21 03:51 5 10 Clear CLR 51 22     32%     30.19 30.19      
Jan 21 02:51 NNE 7 10 Clear CLR 51 22     32%     30.19 30.18      
Jan 21 01:51 N 5 10 Clear CLR 53 24     32%     30.18 30.18      
Jan 21 00:51 N 5 10 Clear CLR 52 26     36%     30.17 30.17      
Jan 20 23:51 7 10 Clear CLR 53 27     36%     30.16 30.16      
Jan 20 22:51 N 10 10 Clear CLR 54 26     34%     30.16 30.16      
Jan 20 21:51 NNW 7 10 Clear CLR 54 25     32%     30.16 30.16      
Jan 20 20:51 6 10 Clear CLR 54 26     34%     30.14 30.14      
Jan 20 19:51 N 14 10 Clear CLR 55 24     30%     30.12 30.12      
Jan 20 18:51 N 10 10 Clear CLR 55 23     29%     30.1 30.1      
Jan 20 17:51 N 13 10 Clear CLR 56 26     31%     30.08 30.08      
Jan 20 16:51 N 7 10 Clear CLR 60 26     27%     30.07 30.06      
Jan 20 15:51 Calm 10 Clear CLR 61 32     33%     30.04 30.04      
Jan 20 14:51 SW 8 10 Clear CLR 61 35     38%     30.03 30.03      
Jan 20 13:51 WSW 10 10 Clear CLR 59 32     36%     30.04 30.03      
Jan 20 13:02 6 10 Clear CLR 62 28     27%     30.03        
Jan 20 12:51 6 10 Clear CLR 62 28     27%     30.04 30.03      
Jan 20 11:51 NW 11 10 Clear CLR 61 27     27%     30.05 30.05      
Jan 20 10:51 6 10 Clear CLR 60 28     29%     30.07 30.07      
Jan 20 09:51 7 10 Clear CLR 58 30     34%     30.07 30.06      
Jan 20 08:51 N 11 10 Clear CLR 55 30     38%     30.05 30.05      
Jan 20 07:51 NNW 8 10 Clear CLR 54 32     43%     30.01 30.01      
Jan 20 06:51 N 10 10 Partly Cloudy SCT110 53 32     45%     29.98 29.98      
Jan 20 04:51 6 10 Clear CLR 52 31     44%     29.95 29.94      
Jan 20 03:51 6 10 Mostly Clear FEW050 53 32     45%     29.94 29.94      
Jan 20 02:51 5 10 Mostly Cloudy BKN050 54 31     41%     29.93 29.93      
Jan 20 01:51 6 10 Mostly Cloudy BKN048 54 30     40%     29.93 29.93      
Jan 20 00:51 NNW 6 10 Cloudy BKN055 OVC075 54 30     40%     29.93 29.93      
Jan 19 23:51 N 7 10 Partly Cloudy SCT065 54 31     41%     29.92 29.92      
Jan 19 22:51 7 10 Clear CLR 55 33     43%     29.93 29.92      
Jan 19 21:51 NNE 5 10 Clear CLR 55 36     48%     29.93 29.93      
Jan 19 21:29 NNE 6 10 Mostly Cloudy SCT028 BKN034 56 38     51%     29.93        
Jan 19 21:12 N 6 10 Mostly Cloudy BKN028 57 45     64%     29.93        
Jan 19 20:51 3 10 Clear CLR 55 49     80%     29.92 29.92      
Jan 19 19:51 SSW 7 10 Mostly Clear FEW023 57 50     77%     29.91 29.91      
Jan 19 18:51 SW 3 10 Partly Cloudy SCT030 57 49     74%     29.91 29.91      
Jan 19 17:51 WSW 8 10 Clear CLR 58 51     78%     29.91 29.91      
Jan 19 16:51 WSW 7 10 Partly Cloudy SCT031 58 52     81%     29.91 29.91      
Jan 19 16:28 WSW 8 10 Cloudy OVC028 59 52     78%     29.92        
Jan 19 16:15 WSW 8 10 Cloudy SCT023 OVC030 59 52     78%     29.92        
Jan 19 15:51 WSW 9 10 Cloudy BKN021 OVC031 59 52     78%     29.93 29.92      
Jan 19 15:25 WSW 10 10 Cloudy BKN016 OVC070 59 53     81%     29.93        
Jan 19 15:12 SW 10 10 Cloudy FEW018 OVC070 60 53     78%     29.92        
Jan 19 14:51 WSW 8 10 Cloudy FEW013 BKN027 OVC075 60 54     80%     29.93 29.93      
Jan 19 13:51 SSW 7 10 Cloudy SCT020 OVC029 60 56     86%     29.94 29.94      
Jan 19 12:51 SW 8 10 Cloudy FEW016 OVC037 61 55     81%     29.96 29.96      
Jan 19 11:51 SSW 7 10 Cloudy OVC021 61 55     81%     30 29.99      
Jan 19 10:51 ESE 6 7 Cloudy OVC028 62 53     72%     30.02 30.02      
Jan 19 10:29 SE 8 6 Haze BKN019 62 53     72%     30.02        
Jan 19 09:51 SSE 5 6 Haze SCT020 OVC028 62 54     75%     30.03 30.03      
Jan 19 08:51 3 6 Haze OVC024 60 55     83%     30.03 30.03      
Jan 19 06:51 Calm 10 Cloudy OVC015 58 55     90%     30.01 30.01      
Jan 19 06:48 Calm 10 Cloudy OVC015 57 55     94%     30.01        
Jan 19 05:51 Calm 10 Cloudy OVC010 58 56     93%     30.02 30.01      
Jan 19 05:40 Calm 10 Cloudy OVC010 58 56     93%     30.01        
Jan 19 04:51 Calm 7 Cloudy OVC008 57 56     96%     30 30      
Jan 19 04:03 Calm 3 Fog/Mist FEW002 OVC009 57 57     100%     30.01        
Jan 19 03:51 Calm 2 Fog/Mist SCT004 OVC009 57 57     100%     30.01 30.01      
Jan 19 02:51 ENE 3 2.5 Fog/Mist OVC007 57 57     100%     30.02 30.01      
Jan 19 01:51 Calm 4 Fog/Mist BKN009 55 55     100%     30.03 30.03      
Jan 19 01:34 Calm 3 Fog/Mist SCT007 BKN011 55 55     100%     30.03        
Jan 19 00:00 Calm 2 Fog/Mist OVC003 56 56     100%     30.04        
Jan 18 23:51 Calm 3 Fog/Mist OVC003 57 57     100%     30.04 30.03      
Jan 18 23:34 Calm 2.5 Fog/Mist OVC004 57 57     100%     30.04        
Jan 18 23:20 Calm 2 Fog/Mist OVC006 57 57     100%     30.04        
Jan 18 23:12 Calm 2 Fog/Mist OVC004 57 57     100%     30.04        
Jan 18 23:01 Calm 1.5 Fog/Mist OVC003 57 57     100%     30.04        
Jan 18 22:51 ENE 5 0.25 Fog VV002 57 57     100%     30.04 30.04      
Jan 18 22:23 Calm 0.75 Fog/Mist VV004 56 56     100%     30.05        
Jun 11 14:51 WSW 11 10 Mostly Clear FEW022 67 54     63%     29.92 29.92      
Jun 11 03:51 SSW 3 10 Cloudy OVC013 62 57     84%     29.86 29.85      
Jun 10 14:51 WSW 8 10 Mostly Cloudy BKN016 67 58     73%     29.89 29.88      
Jun 09 19:51 SW 10 10 Partly Cloudy SCT009 64 60     87%     29.9 29.89      
Notice The following observation data may not be complete
Jun 09 09:51   10 Clear CLR          %              
Jun 09 03:42 Calm 10 Partly Cloudy SCT013 59 56     90%     29.94        
Jun 08 11:29 WSW 7 9 Cloudy BKN008 OVC013 62 59     90%     30.04        
Jun 08 10:48 WSW 7 10 Cloudy BKN008 OVC015 63 61     94%     30.03   0    
Jun 07 23:47 SW 7 4 Light Rain and Fog/Mist OVC003 61 61     100%     29.99   0    
Jun 07 09:51 SW 6 8 Cloudy FEW008 OVC010 63 59     87%     29.96 29.96